Portada
METAR-TAF:

METAR-TAF

Aeroports :

Matsumoto, Japó

latitud: 36-10N, longitud: 137-56E, altitud: 668 m

Observació

L'informe es va fer fa 14 minuts, a les 07:00 UTC
Vent 3 kt del Sud
Temperatura 7°C
Humitat 87%
Pressió 1020 hPa
Visibilitat 10 km o més
Escasses núvols a una alçada de 1000 ft
Núvols disperses a una alçada de 3500 ft
Cel ennuvolat a una alçada de 4500 ft
pluja

METAR: RJAF 050700Z 19003KT 9999 -RA FEW010 SCT035 BKN045 07/05 Q1020

Hora: 16:14 (07:14 UTC)


TAF: manca

Observacions i pronòstics meteorològics de més de 4000 aeroports (METAR i TAF).

Les estacions disponibles són els punts grocs i vermells al mapa.

Posi el ratolí al punt desitjat per veure el nom de l'estació.

Feu clic per veure les observacions i els pronòstics meteorològics.

Per canviar el mapa: feu clic els botons verds amb una creu de color negre per apropar; al botó verd amb un guió per allunyar la imatge; o en les fletxes verdes per a mapes adjacents.


METAR-TAF: